Weather Roundup
Issued by NWS Springfield, MO

Home | Current Version | Previous Version | Text Only | Print | Product List | Glossary On
Versions: 1 2 3 4 5 6 7 8 9 10 11 12 13 14 15 16 17 18 19 20 21 22 23 24 25 26 27 28 29 30 31 32 33 34 35 36 37 38 39 40 41 42 43 44 45 46 47 48 49 50
000
NZUS99 KSGF 291107
HRRSGF

HOURLY WEATHER
NATIONAL WEATHER SERVICE SPRINGFIELD MO
600 AM CDT THU SEP 29 2016

......SGF CWA......

CITY           SKY/WX    TMP DP  RH WIND       PRES   REMARKS
SPRINGFIELD    CLEAR     47  44  90 N3        30.25R
JOPLIN         CLEAR     46  45  96 N6        30.29R
WEST PLAINS    CLEAR     51  47  86 N10       30.20S
ROLLA          CLEAR     49  47  93 NW8       30.20R
OSAGE BEACH    CLEAR     50  49  96 N5        30.25R
BRANSON        CLEAR     48  46  93 NW3       30.25R

......SURROUNDING SGF CWA......

CITY           SKY/WX    TMP DP  RH WIND       PRES   REMARKS
CHANUTE        CLEAR     49  46  90 NW6       30.31R
PARSONS        CLEAR     46  43  89 CALM      30.32R
COFFEYVILLE    CLEAR     48  46  93 N6        30.31R
EMPORIA        CLEAR     47  46  97 W5        30.34R
GROVE OK       CLEAR     52  50  93 CALM      30.29R
ROGERS AR      CLEAR     47  45  93 CALM      30.27R
SILOAM SPRINGS CLEAR     46  37  71 N6        30.28R
HARRISON AR    CLEAR     49  46  90 NW6       30.24R
NEAR YELLVILLE CLEAR     54  46  76 CALM      30.20S

......KANSAS AND MISSOURI......

CITY           SKY/WX    TMP DP  RH WIND       PRES   REMARKS
KANSAS CTY INT CLEAR     48  44  86 N6        30.32R
DOWNTOWN KC    CLEAR     52  48  86 N5        30.32R
COLUMBIA       CLEAR     50  49  96 NW10      30.24R
SEDALIA        CLEAR     50  47  89 N7        30.28R
ST JOSEPH      CLEAR     48  46  93 N7        30.34R
ST LOUIS       PTCLDY    55  48  77 NW10      30.15R
SPIRIT OF STL  CLEAR     53  50  89 NW7       30.15S
KIRKSVILLE     CLEAR     50  47  89 NW7       30.28R
WICHITA        PTCLDY    49  46  90 NW6       30.34R
TOPEKA         CLEAR     50  46  86 W3        30.34R
OLATHE         CLEAR     49  46  90 NW7       30.31R

......TENNESSEE......

CITY           SKY/WX    TMP DP  RH WIND       PRES   REMARKS
MEMPHIS        CLEAR     55  48  77 N7        30.13R
NASHVILLE      CLEAR     50  46  86 W5        30.04F

......ARKANSAS.......

CITY           SKY/WX    TMP DP  RH WIND       PRES   REMARKS
FAYETTEVILLE   CLEAR     45  45 100 CALM      30.26R
FT SMITH       CLEAR     54  47  77 NE5       30.23R
LITTLE ROCK    CLEAR     57  46  66 N12       30.18R

......OKLAHOMA.......

CITY           SKY/WX    TMP DP  RH WIND       PRES   REMARKS
TULSA          CLEAR     50  48  93 N6        30.28R
PONCA CITY     CLEAR     47  44  90 CALM      30.33R
MCALESTER      PTCLDY    54  49  83 N6        30.25R
OKLAHOMA CITY  PTCLDY    55  48  77 NE14      30.29R

......IOWA............

CITY           SKY/WX    TMP DP  RH WIND       PRES   REMARKS
DES MOINES     CLEAR     53  50  89 N9        30.35R
QUAD CITIES    CLOUDY    55  49  80 VRB6G17   30.22R

......ILLINOIS........

CITY           SKY/WX    TMP DP  RH WIND       PRES   REMARKS
QUINCY         CLEAR     52  49  89 NW12      30.20S
CHICAGO        CLOUDY    62  56  80 N20G28    30.11R



USA.gov is the U.S. government's official web portal to all federal, state and local government web resources and services.